time_stamp(utc),avg(mph),gust(mph),direction(deg),12m_air_temp(f),sonic_u(cm/s),sonic_v(cm/s),sonic_w(cm/s),pressure,2m_air_temp(f),pyranometer(W/m^2)
"2018-02-13 00:02:58+00",4.5,4.5,,41.8,2,177,5,1033.98,37.4,0
"2018-02-13 00:07:58+00",3.9,3.9,,41.6,-30,153,5,1034.22,37.6,0
"2018-02-13 00:12:58+00",4.0,4.0,,41.3,-70,143,7,1034.39,37.5,0
"2018-02-13 00:17:58+00",4.3,4.3,,41.2,-94,147,8,1034.28,37.5,0
"2018-02-13 00:22:58+00",4.7,4.7,,41.2,-108,164,11,1034.41,37.4,0
"2018-02-13 00:27:58+00",4.8,4.8,,41.2,-101,174,13,1034.29,37.3,0
"2018-02-13 00:32:58+00",5.6,5.6,,41.4,-90,214,12,1034.39,37.2,0
"2018-02-13 00:37:58+00",6.2,6.2,,41.4,-130,230,16,1034.46,37.3,0
"2018-02-13 00:42:58+00",7.1,7.1,,41.4,-133,275,22,1034.51,37.2,0
"2018-02-13 00:47:58+00",7.0,7.0,,41.4,-133,268,17,1034.47,37.1,0
"2018-02-13 00:52:58+00",7.2,7.2,,41.3,-143,273,15,1034.72,36.8,0
"2018-02-13 00:57:58+00",7.9,8.9,,41.4,-146,301,17,1034.84,36.6,0
"2018-02-13 01:02:58+00",7.7,7.7,,41.7,-141,298,18,1034.97,36.5,0
"2018-02-13 01:07:58+00",7.4,8.4,,41.5,-155,275,16,1034.95,36.4,0
"2018-02-13 01:12:58+00",7.9,8.9,,40.7,-219,265,17,1034.87,36.3,0
"2018-02-13 01:17:58+00",7.2,7.2,,39.9,-249,197,18,1035.15,36.1,0
"2018-02-13 01:22:58+00",7.2,7.2,,39.5,-265,172,22,1035.3,36.1,0
"2018-02-13 01:27:58+00",7.0,7.0,,39.4,-261,164,18,1035.46,36,0
"2018-02-13 01:32:58+00",7.5,7.5,,39.1,-264,192,17,1035.55,36,0
"2018-02-13 01:37:58+00",6.4,7.4,,38.9,-214,176,17,1035.56,36,0
"2018-02-13 01:42:58+00",7.3,8.3,,38.9,-221,221,19,1035.63,36,0
"2018-02-13 01:47:58+00",9.3,10.3,,38.9,-278,297,27,1035.79,36.1,0
"2018-02-13 01:52:58+00",9.0,10.0,,38.9,-235,315,23,1035.96,36.2,0
"2018-02-13 01:57:58+00",8.0,8.0,,39,-212,275,22,1035.94,36.2,0
"2018-02-13 02:02:58+00",7.5,8.5,,38.7,-208,250,16,1035.93,36,0
"2018-02-13 02:07:58+00",9.3,10.3,,38.4,-240,326,23,1036.01,36,0
"2018-02-13 02:12:58+00",10.6,11.6,,38,-253,389,27,1035.98,35.8,0
"2018-02-13 02:17:58+00",10.9,11.9,,37.7,-154,441,20,1035.98,35.6,0
"2018-02-13 02:22:58+00",10.2,11.2,,37.1,-121,420,11,1036.02,35.1,0
"2018-02-13 02:27:58+00",10.7,10.7,,37.1,-111,456,14,1035.93,34.6,0
"2018-02-13 02:32:58+00",10.6,11.6,,36.8,-118,442,13,1036.08,34.2,0
"2018-02-13 02:37:58+00",11.4,13.4,,36.9,-50,495,14,1036.17,34,0
"2018-02-13 02:42:58+00",11.6,12.6,,36.7,-9,505,16,1036.33,33.8,0
"2018-02-13 02:47:58+00",11.9,12.9,,36.9,26,513,10,1036.42,34,0
"2018-02-13 02:52:58+00",12.5,13.5,,36.8,-11,538,12,1036.45,34.1,0
"2018-02-13 02:57:58+00",12.0,13.0,,36.9,-6,523,12,1036.41,34.1,0
"2018-02-13 03:02:58+00",11.9,12.9,,37,68,506,6,1036.52,34.1,0
"2018-02-13 03:07:58+00",11.4,13.4,,37.2,117,463,-1,1036.57,34.3,0
"2018-02-13 03:12:58+00",12.3,14.3,,37.4,101,512,7,1036.64,34.8,0
"2018-02-13 03:17:58+00",12.8,14.8,,37.5,71,551,8,1036.63,34.8,0
"2018-02-13 03:22:58+00",13.7,14.7,,37.3,22,599,10,1036.74,34.7,0
"2018-02-13 03:27:58+00",13.7,15.7,,37.2,4,591,13,1036.71,34.7,0
"2018-02-13 03:32:58+00",14.0,15.0,,37.2,31,610,8,1036.88,34.7,0
"2018-02-13 03:37:58+00",12.7,13.7,,37.1,21,546,16,1037,34.6,0
"2018-02-13 03:42:58+00",11.4,12.4,,36.9,26,491,3,1037.07,34.5,0
"2018-02-13 03:47:58+00",10.6,12.6,,36.5,21,462,10,1037.08,34.2,0
"2018-02-13 03:52:58+00",8.9,9.9,,36.2,-89,375,14,1037.14,33.8,0
"2018-02-13 03:57:58+00",8.5,8.5,,35.7,-133,340,18,1037.19,33.5,0
"2018-02-13 04:02:58+00",7.4,8.4,,35.1,-147,281,21,1037.38,33.1,0
"2018-02-13 04:07:58+00",8.0,8.0,,34.7,-98,331,11,1037.36,32.7,0
"2018-02-13 04:12:58+00",9.6,10.6,,34.5,-116,403,18,1037.56,32.3,0
"2018-02-13 04:17:58+00",10.4,10.4,,34.4,-117,435,11,1037.52,32,0
"2018-02-13 04:22:58+00",10.5,11.5,,34.4,-32,455,14,1037.56,31.6,0
"2018-02-13 04:27:58+00",9.7,10.7,,34.6,2,411,14,1037.68,31.4,0
"2018-02-13 04:32:58+00",10.0,10.0,,34.4,-9,431,18,1037.73,31.2,0
"2018-02-13 04:37:58+00",8.8,9.8,,34.4,-33,378,13,1037.88,31.1,0
"2018-02-13 04:42:58+00",8.4,8.4,,34.4,-72,353,14,1037.98,31,0
"2018-02-13 04:47:58+00",9.2,10.2,,34.4,-89,386,14,1038.08,30.9,0
"2018-02-13 04:52:58+00",8.0,8.0,,33.9,-75,334,9,1038.14,30.9,0
"2018-02-13 04:57:58+00",7.3,8.3,,33.5,-108,291,9,1038.1,30.8,0
"2018-02-13 05:02:58+00",8.2,10.2,,33.1,-150,322,19,1038.06,30.8,0
"2018-02-13 05:07:58+00",9.4,9.4,,33.1,-105,395,13,1038.11,30.8,0
"2018-02-13 05:12:58+00",9.6,11.6,,33,-90,410,10,1038.21,30.8,0
"2018-02-13 05:17:58+00",9.2,10.2,,32.9,-49,401,12,1038.17,30.7,0
"2018-02-13 05:22:58+00",9.2,11.2,,33,-13,400,16,1038.2,30.5,0
"2018-02-13 05:27:58+00",10.4,11.4,,33.2,31,448,14,1038.39,30.7,0
"2018-02-13 05:32:58+00",11.1,12.1,,33.2,87,464,8,1038.37,31,0
"2018-02-13 05:37:58+00",10.7,12.7,,33,69,460,0,1038.46,30.9,0
"2018-02-13 05:42:58+00",13.2,15.2,,33.1,62,561,5,1038.49,31.2,0
"2018-02-13 05:47:58+00",11.4,14.4,,32.9,52,495,7,1038.45,31.2,0
"2018-02-13 05:52:58+00",12.0,15.0,,32.9,58,514,16,1038.58,31.2,0
"2018-02-13 05:57:58+00",11.8,13.8,,32.8,71,504,3,1038.64,31,0
"2018-02-13 06:02:58+00",11.4,13.4,,32.7,116,468,8,1038.73,31,0
"2018-02-13 06:07:58+00",11.0,14.0,,32.7,93,465,7,1038.75,31.1,0
"2018-02-13 06:12:58+00",11.1,12.1,,32.6,111,464,-5,1038.92,31,0
"2018-02-13 06:17:58+00",11.8,13.8,,32.5,98,493,5,1038.76,30.9,0
"2018-02-13 06:22:58+00",10.8,12.8,,32.4,73,460,12,1038.73,30.8,0
"2018-02-13 06:27:58+00",11.9,14.9,,32.1,131,478,5,1038.83,30.7,0
"2018-02-13 06:32:58+00",12.6,14.6,,32.2,96,527,-3,1038.98,30.8,0
"2018-02-13 06:37:58+00",12.0,14.0,,32,95,504,10,1039.03,30.7,0
"2018-02-13 06:42:58+00",11.1,13.1,,31.7,67,472,10,1039.14,30.4,0
"2018-02-13 06:47:58+00",10.9,12.9,,31.5,69,465,6,1039.15,30.2,0
"2018-02-13 06:52:58+00",10.3,11.3,,31.2,1,444,13,1039.18,29.9,0
"2018-02-13 06:57:58+00",10.7,12.7,,31,89,448,3,1039.21,29.7,0
"2018-02-13 07:02:58+00",11.2,14.2,,31,24,484,5,1039.25,29.5,0
"2018-02-13 07:07:58+00",11.6,13.6,,30.8,25,502,11,1039.43,29.4,0
"2018-02-13 07:12:58+00",11.5,13.5,,30.9,98,475,8,1039.41,29.3,0
"2018-02-13 07:17:58+00",11.8,13.8,,30.9,67,505,9,1039.38,29.3,0
"2018-02-13 07:22:58+00",11.1,13.1,,30.9,-4,479,24,1039.32,29.4,0
"2018-02-13 07:27:58+00",11.7,13.7,,30.8,41,517,18,1039.49,29.3,0
"2018-02-13 07:32:58+00",13.2,16.2,,30.9,44,568,10,1039.4,29.3,0
"2018-02-13 07:37:58+00",13.6,15.6,,30.7,71,581,9,1039.41,29.3,0
"2018-02-13 07:42:58+00",13.8,15.8,,30.6,18,603,24,1039.37,29.3,0
"2018-02-13 07:47:58+00",12.9,14.9,,30.4,18,563,20,1039.49,29.2,0
"2018-02-13 07:52:58+00",10.9,13.9,,30.2,36,475,19,1039.44,29.1,0
"2018-02-13 07:57:58+00",11.7,13.7,,30.1,23,501,7,1039.51,28.9,0
"2018-02-13 08:02:58+00",13.2,15.2,,29.9,32,575,14,1039.63,28.8,0
"2018-02-13 08:07:58+00",12.7,14.7,,29.9,24,559,16,1039.67,28.7,0
"2018-02-13 08:12:58+00",10.7,13.7,,29.7,-79,459,26,1039.72,28.6,0
"2018-02-13 08:17:58+00",10.2,11.2,,29.5,-27,439,16,1039.85,28.4,0
"2018-02-13 08:22:58+00",10.2,12.2,,29.3,9,446,7,1039.82,28.2,0
"2018-02-13 08:27:58+00",10.6,12.6,,29.2,-34,466,20,1039.8,28,0
"2018-02-13 08:32:58+00",12.7,14.7,,29.3,26,552,13,1039.81,27.9,0
"2018-02-13 08:37:58+00",11.5,13.5,,29.2,-2,499,7,1039.79,27.8,0
"2018-02-13 08:42:58+00",10.3,12.3,,29.2,20,447,15,1040.14,27.8,0
"2018-02-13 08:47:58+00",10.3,11.3,,29.2,34,460,23,1040.24,27.8,0
"2018-02-13 08:52:58+00",9.9,11.9,,29.1,79,407,12,1040.3,27.8,0
"2018-02-13 08:57:58+00",10.8,12.8,,29.2,122,429,-5,1040.24,27.8,0
"2018-02-13 09:02:58+00",13.4,14.4,,29.3,76,577,9,1040.29,27.9,0
"2018-02-13 09:07:58+00",11.9,12.9,,29.1,70,508,10,1040.27,27.9,0
"2018-02-13 09:12:58+00",10.9,12.9,,29,57,465,5,1040.37,27.8,0
"2018-02-13 09:17:58+00",11.2,13.2,,28.8,90,471,10,1040.54,27.6,0
"2018-02-13 09:22:58+00",10.9,12.9,,28.8,98,454,2,1040.48,27.5,0
"2018-02-13 09:27:58+00",12.1,13.1,,29,105,505,3,1040.65,27.7,0
"2018-02-13 09:32:58+00",11.5,13.5,,28.9,45,495,11,1040.71,27.8,0
"2018-02-13 09:37:58+00",12.6,15.6,,28.8,-26,553,24,1040.89,27.7,0
"2018-02-13 09:42:58+00",12.4,15.4,,28.7,68,526,9,1040.94,27.5,0
"2018-02-13 09:47:58+00",8.9,9.9,,28.3,44,370,9,1040.85,27.3,0
"2018-02-13 09:52:58+00",10.8,12.8,,28.2,13,463,8,1040.77,27,0
"2018-02-13 09:57:58+00",10.3,12.3,,28.2,36,443,8,1040.82,26.8,0
"2018-02-13 10:02:58+00",10.7,11.7,,27.9,15,464,13,1041.03,26.6,0
"2018-02-13 10:07:58+00",10.0,12.0,,28.1,54,429,3,1040.98,26.6,0
"2018-02-13 10:12:58+00",12.4,14.4,,28.2,107,521,-1,1041.08,26.7,0
"2018-02-13 10:17:58+00",10.6,12.6,,28.1,41,451,5,1041.18,26.8,0
"2018-02-13 10:22:58+00",11.6,12.6,,28.1,-25,501,7,1041.17,26.7,0
"2018-02-13 10:27:58+00",9.6,12.6,,27.9,3,414,9,1041.09,26.6,0
"2018-02-13 10:32:58+00",10.2,11.2,,27.8,11,441,13,1041.3,26.5,0
"2018-02-13 10:37:58+00",11.6,13.6,,27.8,91,484,7,1041.37,26.5,0
"2018-02-13 10:42:58+00",12.8,15.8,,28,70,547,7,1041.44,26.6,0
"2018-02-13 10:47:58+00",11.6,13.6,,28,55,498,12,1041.58,26.7,0
"2018-02-13 10:52:58+00",12.7,15.7,,28.1,73,542,24,1041.53,26.8,0
"2018-02-13 10:57:58+00",10.3,13.3,,28.1,33,443,11,1041.65,27,0
"2018-02-13 11:02:58+00",10.6,12.6,,27.9,-3,463,15,1041.79,26.8,0
"2018-02-13 11:07:58+00",10.6,11.6,,27.7,-8,460,17,1041.91,26.7,0
"2018-02-13 11:12:58+00",11.8,12.8,,27.7,-37,515,15,1041.81,26.6,0
"2018-02-13 11:17:58+00",9.9,10.9,,27.5,-66,426,22,1041.98,26.5,0
"2018-02-13 11:22:58+00",8.9,10.9,,27.3,-66,376,18,1041.96,26.4,0
"2018-02-13 11:27:58+00",11.8,12.8,,27.3,-43,509,22,1042.12,26.3,0
"2018-02-13 11:32:58+00",12.6,13.6,,27.4,-20,550,25,1042.26,26.3,0
"2018-02-13 11:37:58+00",13.7,14.7,,27.3,-21,602,19,1042.12,26.2,0
"2018-02-13 11:42:58+00",15.0,18.0,,27.1,-30,649,12,1041.99,26.1,0
"2018-02-13 11:47:58+00",15.2,17.2,,27.2,4,670,15,1042.25,26.1,0
"2018-02-13 11:52:58+00",16.0,18.0,,27.2,-69,704,20,1042.13,26.2,0
"2018-02-13 11:57:58+00",12.5,14.5,,27.2,12,549,6,1042.43,26.2,0
"2018-02-13 12:02:58+00",15.0,17.0,,27.1,-27,655,13,1042.49,26.2,0
"2018-02-13 12:07:58+00",11.9,14.9,,27,-41,533,25,1042.81,26.1,0
"2018-02-13 12:12:58+00",13.8,15.8,,27.1,-15,607,11,1042.84,26.1,0
"2018-02-13 12:17:58+00",12.3,14.3,,27.2,1,535,1,1043.03,26.2,0
"2018-02-13 12:22:58+00",12.6,14.6,,27.2,3,554,11,1043.02,26.3,0.5
"2018-02-13 12:27:58+00",14.4,16.4,,27.2,-35,627,25,1042.79,26.5,13.3
"2018-02-13 12:32:58+00",12.3,16.3,,27.2,-13,532,17,1043.02,26.8,24
"2018-02-13 12:37:58+00",13.2,15.2,,27.1,3,569,2,1043.08,27.1,31.4
"2018-02-13 12:42:58+00",13.6,14.6,,27.2,-8,597,22,1043.09,27.6,41.5
"2018-02-13 12:47:58+00",12.0,13.0,,27.2,-4,519,16,1043.1,28,51.2
"2018-02-13 12:52:58+00",13.3,15.3,,27.4,41,571,-4,1042.94,28.4,61.1
"2018-02-13 12:57:58+00",9.8,11.8,,27.8,100,396,8,1043.1,28.7,72.3
"2018-02-13 13:02:58+00",13.3,15.3,,28.1,106,563,2,1042.97,29,85
"2018-02-13 13:07:58+00",12.1,14.1,,28.3,157,495,5,1042.99,29.3,93.5
"2018-02-13 13:12:58+00",14.4,16.4,,28.3,160,590,-7,1042.86,29.4,105.1
"2018-02-13 13:17:58+00",12.5,15.5,,28.4,170,495,5,1042.97,29.7,117.5
"2018-02-13 13:22:58+00",15.1,17.1,,28.4,105,638,5,1042.94,29.7,129.9
"2018-02-13 13:27:58+00",16.0,18.0,,28.5,218,632,-3,1042.79,29.8,137.3
"2018-02-13 13:32:58+00",11.4,14.4,,28.9,186,438,42,1042.9,30.3,146.9
"2018-02-13 13:37:58+00",14.0,17.0,,28.7,184,559,-15,1043.01,30.4,157.8
"2018-02-13 13:42:58+00",10.9,13.9,,28.8,198,409,17,1043,30.7,168.3
"2018-02-13 13:47:58+00",10.2,12.2,,29,231,343,36,1043.01,31.1,178.1
"2018-02-13 13:52:58+00",11.0,14.0,,29.3,167,426,4,1043.02,31.3,188.1
"2018-02-13 13:57:58+00",10.1,12.1,,29.8,197,376,24,1042.97,31.9,196.9
"2018-02-13 14:02:58+00",11.7,13.7,,29.9,269,414,9,1042.98,32.1,205
"2018-02-13 14:07:58+00",14.2,17.2,,30.4,333,518,23,1042.91,32.6,214.2
"2018-02-13 14:12:58+00",15.4,17.4,,30.8,599,324,46,1042.91,32.9,221.1
"2018-02-13 14:17:58+00",13.9,15.9,,31,431,396,13,1042.79,33.1,230.9
"2018-02-13 14:22:58+00",16.4,18.4,,31.5,637,347,62,1042.9,33.4,230.8
"2018-02-13 14:27:58+00",20.2,23.2,,31.3,784,434,35,1042.88,33.4,243.6
"2018-02-13 14:32:58+00",19.1,21.1,,31.3,763,370,39,1042.99,33.3,250.4
"2018-02-13 14:37:58+00",20.2,23.2,,31.3,724,518,24,1042.92,33.2,256.2
"2018-02-13 14:42:58+00",17.7,19.7,,31.3,657,425,39,1042.95,33.3,263.6
"2018-02-13 14:47:58+00",19.0,21.0,,31.3,645,517,38,1043.06,33.4,269.6
"2018-02-13 14:52:58+00",19.2,23.2,,31.5,712,459,47,1043.08,33.4,272.1
"2018-02-13 14:57:58+00",19.8,21.8,,31.4,641,553,24,1043.06,33.5,277.5
"2018-02-13 15:02:58+00",19.5,22.5,,31.2,618,563,19,1043.07,33.4,285.1
"2018-02-13 15:07:58+00",18.6,22.6,,31.6,765,347,44,1043.08,33.8,289.1
"2018-02-13 15:12:58+00",19.9,21.9,,31.5,779,422,37,1042.94,33.7,297.5
"2018-02-13 15:17:58+00",21.2,24.2,,31.3,775,528,40,1042.66,33.7,297.6
"2018-02-13 15:22:58+00",19.0,20.0,,31.4,715,438,41,1042.68,33.9,307.5
"2018-02-13 15:27:58+00",19.5,22.5,,31.6,692,497,23,1042.75,33.8,315.5
"2018-02-13 15:32:58+00",21.8,22.8,,31.2,731,594,15,1042.58,33.8,310.6
"2018-02-13 15:37:58+00",18.8,21.8,,31.3,727,409,54,1042.73,33.7,316.4
"2018-02-13 15:42:58+00",19.6,24.6,,31.2,674,531,41,1042.51,33.6,326
"2018-02-13 15:47:58+00",21.4,24.4,,31.6,850,432,65,1042.58,33.9,331.1
"2018-02-13 15:52:58+00",20.2,23.2,,31.4,744,496,32,1042.57,34,332.5
"2018-02-13 15:57:58+00",21.0,26.0,,31.5,766,509,38,1042.47,34.1,339
"2018-02-13 16:02:58+00",17.1,21.1,,31.4,661,377,56,1042.64,34.4,345.3
"2018-02-13 16:07:58+00",18.2,22.2,,31.6,611,494,18,1042.59,34.5,345.3
"2018-02-13 16:12:58+00",18.3,20.3,,31.4,711,399,26,1042.62,34.4,351.9
"2018-02-13 16:17:58+00",17.9,19.9,,31.9,753,303,51,1042.56,34.9,351.8
"2018-02-13 16:22:58+00",19.6,22.6,,31.7,779,405,48,1042.48,35,354.8
"2018-02-13 16:27:58+00",24.8,26.8,,31.4,941,605,11,1042.32,34.7,311.3
"2018-02-13 16:32:58+00",20.0,24.0,,31.4,727,503,23,1042.42,34.1,327.5
"2018-02-13 16:37:58+00",17.6,22.6,,31.6,759,250,55,1042.38,34.5,362
"2018-02-13 16:42:58+00",20.6,22.6,,31.6,793,455,19,1042.29,34.7,364.9
"2018-02-13 16:47:58+00",17.6,19.6,,31.7,712,329,34,1042.37,34.6,366.8
"2018-02-13 16:52:58+00",15.2,17.2,,32.2,656,220,70,1042.3,34.8,367.3
"2018-02-13 16:57:58+00",20.9,23.9,,31.5,809,470,45,1042.01,34.8,368.1
"2018-02-13 17:02:58+00",19.7,23.7,,31.9,746,449,42,1041.84,34.8,370.3
"2018-02-13 17:07:58+00",18.5,21.5,,31.9,757,352,45,1041.77,34.8,373.8
"2018-02-13 17:12:58+00",17.3,21.3,,31.8,681,365,14,1041.97,34.9,368.4
"2018-02-13 17:17:58+00",17.1,20.1,,31.9,759,161,50,1041.67,35,369.4
"2018-02-13 17:22:58+00",19.4,22.4,,31.7,844,227,35,1041.58,35.2,370.2
"2018-02-13 17:27:58+00",18.5,21.5,,32,784,301,26,1041.57,35.3,368.1
"2018-02-13 17:32:58+00",14.1,18.1,,32.3,584,237,67,1041.48,35.6,368.1
"2018-02-13 17:37:58+00",15.0,18.0,,32.1,651,201,44,1041.69,35.4,367.8
"2018-02-13 17:42:58+00",15.8,17.8,,32.4,640,291,28,1041.37,35.5,362.9
"2018-02-13 17:47:58+00",14.6,16.6,,32,527,366,36,1041.45,35.3,362.1
"2018-02-13 17:52:58+00",15.4,16.4,,32,578,362,30,1041.48,35.3,362
"2018-02-13 17:57:58+00",17.8,20.8,,32.6,709,365,52,1041.27,35.6,360.1
"2018-02-13 18:02:58+00",15.8,19.8,,32.4,648,262,44,1041.27,35.6,357.4
"2018-02-13 18:07:58+00",15.0,17.0,,32.5,628,234,42,1041.2,35.6,351.5
"2018-02-13 18:12:58+00",13.5,15.5,,32.5,572,198,71,1041.24,35.8,350.5
"2018-02-13 18:17:58+00",14.6,17.6,,32.2,581,298,28,1041.08,35.5,347.4
"2018-02-13 18:22:58+00",16.2,18.2,,32.2,716,87,17,1040.94,35.4,344.7
"2018-02-13 18:27:58+00",16.7,23.7,,32.4,718,193,30,1041.17,35.3,337.2
"2018-02-13 18:32:58+00",16.4,19.4,,32.4,656,329,19,1041.17,35.6,335
"2018-02-13 18:37:58+00",15.1,18.1,,32.7,642,178,41,1041.15,35.3,330.1
"2018-02-13 18:42:58+00",14.1,16.1,,32.6,583,245,21,1041.01,35.4,326.5
"2018-02-13 18:47:58+00",15.9,18.9,,32.6,706,46,32,1040.89,35.7,321.6
"2018-02-13 18:52:58+00",13.3,15.3,,32.9,548,241,32,1040.92,35.8,319.3
"2018-02-13 18:57:58+00",14.7,16.7,,32.6,536,357,0,1041.06,35.5,308.8
"2018-02-13 19:02:58+00",10.5,11.5,,33.1,438,172,39,1040.96,35.9,307.6
"2018-02-13 19:07:58+00",18.0,19.0,,33.1,695,393,9,1040.7,36,299.4
"2018-02-13 19:12:58+00",13.5,16.5,,32.9,577,197,30,1040.67,35.9,294.4
"2018-02-13 19:17:58+00",13.4,15.4,,33.1,591,89,22,1040.74,36.1,295.4
"2018-02-13 19:22:58+00",10.5,12.5,,33.1,390,246,33,1040.8,36.4,280.1
"2018-02-13 19:27:58+00",11.4,13.4,,33,501,70,11,1040.68,36.3,254.5
"2018-02-13 19:32:58+00",10.3,11.3,,33.1,444,108,22,1040.65,36.2,267.9
"2018-02-13 19:37:58+00",14.4,15.4,,33,565,298,4,1040.52,36,262.3
"2018-02-13 19:42:58+00",10.5,12.5,,33.1,438,154,24,1040.53,35.8,260.5
"2018-02-13 19:47:58+00",10.6,12.6,,33.1,455,125,31,1040.38,36,251.3
"2018-02-13 19:52:58+00",13.9,15.9,,33.4,545,288,41,1040.39,35.9,184
"2018-02-13 19:57:58+00",13.3,15.3,,33.2,572,138,34,1040.55,35.8,204.6
"2018-02-13 20:02:58+00",13.4,14.4,,33.2,576,169,12,1040.58,35.6,227.3
"2018-02-13 20:07:58+00",13.5,15.5,,33.6,540,267,9,1040.51,35.8,208.2
"2018-02-13 20:12:58+00",12.0,14.0,,33.6,522,74,26,1040.41,35.8,223.7
"2018-02-13 20:17:58+00",11.0,13.0,,33.4,484,60,17,1040.54,35.8,185.2
"2018-02-13 20:22:58+00",9.2,10.2,,33.3,370,162,10,1040.62,35.5,121
"2018-02-13 20:27:58+00",12.8,14.8,,33.4,535,206,35,1040.49,35.2,48.6
"2018-02-13 20:32:58+00",11.7,13.7,,33.3,487,188,21,1040.42,34.9,54.1
"2018-02-13 20:37:58+00",9.7,11.7,,33.4,424,75,19,1040.6,34.8,59.4
"2018-02-13 20:42:58+00",9.4,11.4,,33.6,410,18,35,1040.59,35,88.1
"2018-02-13 20:47:58+00",10.0,11.0,,33.6,432,73,4,1040.43,35.2,61.7
"2018-02-13 20:52:58+00",11.2,12.2,,33.6,494,65,31,1040.42,35.1,65.1
"2018-02-13 20:57:58+00",7.7,9.7,,33.7,338,48,39,1040.3,35,61.5
"2018-02-13 21:02:58+00",9.6,11.6,,33.7,394,117,35,1040.49,34.9,37.2
"2018-02-13 21:07:58+00",9.1,10.1,,33.6,382,135,-1,1040.52,34.7,42
"2018-02-13 21:12:58+00",7.7,9.7,,33.7,336,41,28,1040.59,34.7,29.5
"2018-02-13 21:17:58+00",7.5,8.5,,33.8,322,56,38,1040.41,34.9,27.8
"2018-02-13 21:22:58+00",9.6,10.6,,33.8,408,117,7,1040.36,34.9,21.3
"2018-02-13 21:27:58+00",8.6,10.6,,33.8,341,161,2,1040.32,34.7,10.6
"2018-02-13 21:32:58+00",9.5,11.5,,33.9,400,150,16,1040.13,34.6,4.4
"2018-02-13 21:37:58+00",9.3,10.3,,34,400,114,19,1040,34.6,1.6
"2018-02-13 21:42:58+00",10.3,12.3,,34,410,197,28,1039.89,34.7,0.1
"2018-02-13 21:47:58+00",8.5,10.5,,34.2,339,161,12,1040.06,34.7,0.3
"2018-02-13 21:52:58+00",9.4,10.4,,34.2,368,180,19,1039.98,34.6,0.9
"2018-02-13 21:57:58+00",9.1,11.1,,34.2,370,150,25,1039.95,34.6,0.5
"2018-02-13 22:02:58+00",8.9,9.9,,34.3,341,181,16,1040,34.5,0
"2018-02-13 22:07:58+00",6.8,7.8,,34.2,223,175,33,1039.9,34.4,0
"2018-02-13 22:12:58+00",9.9,11.9,,34.2,397,186,18,1039.98,34.3,0
"2018-02-13 22:17:58+00",7.6,8.6,,34.2,292,149,18,1039.9,34.2,0
"2018-02-13 22:22:58+00",9.1,10.1,,34,349,184,20,1039.8,34,0
"2018-02-13 22:27:58+00",7.5,8.5,,34.1,298,140,18,1039.87,34,0
"2018-02-13 22:32:58+00",6.4,8.4,,34.3,266,86,47,1039.83,34.1,0
"2018-02-13 22:37:58+00",7.7,8.7,,34.4,319,129,11,1039.73,34.2,0
"2018-02-13 22:42:58+00",9.0,10.0,,34.4,363,164,-7,1039.68,34.3,0
"2018-02-13 22:47:58+00",7.8,9.8,,34.4,316,132,14,1039.4,34.4,0
"2018-02-13 22:52:58+00",6.0,7.0,,34.5,250,88,19,1039.34,34.5,0
"2018-02-13 22:57:58+00",8.1,9.1,,34.6,328,144,19,1039.32,34.5,0
"2018-02-13 23:02:58+00",9.3,10.3,,34.7,356,189,12,1039.36,34.6,0
"2018-02-13 23:07:58+00",7.5,8.5,,34.7,288,153,4,1039.31,34.6,0
"2018-02-13 23:12:58+00",6.1,7.1,,34.7,246,97,4,1039.23,34.6,0
"2018-02-13 23:17:58+00",4.7,4.7,,34.7,181,79,14,1039.11,34.6,0
"2018-02-13 23:22:58+00",6.9,7.9,,34.7,275,116,7,1039.14,34.6,0
"2018-02-13 23:27:58+00",6.6,7.6,,34.8,272,101,21,1038.92,34.5,0
"2018-02-13 23:32:58+00",7.7,8.7,,34.8,291,166,15,1038.87,34.6,0
"2018-02-13 23:37:58+00",6.0,7.0,,34.9,241,91,23,1038.77,34.7,0
"2018-02-13 23:42:58+00",7.3,8.3,,35,296,116,18,1038.74,34.8,0
"2018-02-13 23:47:58+00",5.7,7.7,,35.1,234,73,28,1038.85,34.9,0
"2018-02-13 23:52:58+00",6.5,7.5,,35.2,254,121,6,1038.82,35,0
"2018-02-13 23:57:58+00",7.7,8.7,,35.3,320,127,18,1038.72,35.1,0
